カタログに戻る

CZ-6A DEB

運用中SSO
NORAD 54515·DEBRIS·🇨🇳 China

打ち上げ Nov 11, 2022 から Taiyuan Satellite Launch Center

Loading…

次のパス (今後24時間)

TLE

最新Source: Space-Track

元期: Sep 14, 2026, 19:54 UTC

1 54515U 22151JT  26257.82927453  .00000257  00000-0  92246-4 0  9994
2 54515  98.5574 282.1389 0119335  93.6850 267.7992 14.38013625201206

AllMySatでCZ-6A DEBをリアルタイム追跡

Download on the App Store